Location: Les Martinières
(47.2667°N, 1.4410°E)
Time: 23:37:14
(UTC+00:00)

Cosmos 1777 Rocket - Pass Details

Date: 15 May 2026
Orbit: 754 x 771 km, 74.0° (Epoch: 11 June)

Event Time Altitude Azimuth Distance (km) Brightness Sun altitude
Rises 21:33:08 0° 336° (NNW) 3,240 8.9 -16.9°
Reaches altitude 10° 21:35:32 10° 335° (NNW) 2,307 7.8 -17.1°
Maximum altitude 21:40:45 75° 250° (WSW) 790 4.0 -17.6°
Enters shadow 21:43:22 30° 171° (S) 1,345 4.7 -17.8°
